Richlands, VA

5:16 PM EDT on October 23, 2017 (GMT -0400)
Tazewell County

Weather History for KJFZ - April, 2014

Change the Weather History Date:

Friday, April 25, 2014

  Actual Average (KBLF) Record (KBLF)
Temperature  
Mean Temperature 60 °F -  
Max Temperature 65 °F 62 °F 85 °F (2009)
Min Temperature 54 °F 42 °F 30 °F (1967)
Degree Days  
Heating Degree Days 6    
Growing Degree Days 10 (Base 50)    
Moisture  
Dew Point 48 °F    
Average Humidity 64    
Maximum Humidity 91    
Minimum Humidity 34    
Precipitation  
Precipitation 0.27 in - - ()
Sea Level Pressure  
Sea Level Pressure 29.86 in    
Wind  
Wind Speed 6 mph (WSW)    
Max Wind Speed 15 mph    
Max Gust Speed 31 mph    
Visibility 9 miles    
Events Rain , Thunderstorm    
Averages and records for this station are not official NWS values.
T = Trace of Precipitation, MM = Missing Value Source: NWS Daily Summary

Daily Weather History Graph

Daily Weather History Graph

Search for Another Location

Airport or City:

Trip Planner

Search our weather history database for the weather conditions in past years. The results will help you decide how hot, cold, wet, or windy it might be!

Date:

Astronomy

Apr. 25, 2014 Rise Set
Actual Time 6:39 AM EDT 8:10 PM EDT
Civil Twilight 6:12 AM EDT 8:38 PM EDT
Nautical Twilight 5:39 AM EDT 9:11 PM EDT
Astronomical Twilight 5:04 AM EDT 9:46 PM EDT
Moon 4:21 AM EDT (4/25) 4:36 PM EDT (4/25)
Length of Visible Light 14h 26m
Length of Day
13h 31m
Waning Crescent, 15% of the Moon is Illuminated
Apr 25
Waning Crescent
Apr 29
New
May 6
First Quarter
May 14
Full
May 21
Last Quarter

Hourly Weather History & Observations

Time (EDT) Temp. Dew Point Humidity Pressure Visibility Wind Dir Wind Speed Gust Speed Precip Events Conditions
12:15 AM 63.3 °F 34.2 °F 34% 29.93 in 10.0 mi Calm Calm - N/A   Clear
12:35 AM 63.3 °F 34.3 °F 34% 29.93 in 10.0 mi Calm Calm - N/A   Clear
12:55 AM 62.2 °F 34.7 °F 36% 29.93 in 10.0 mi South 3.5 mph - N/A   Clear
1:15 AM 61.7 °F 35.4 °F 38% 29.92 in 10.0 mi SE 5.8 mph - N/A   Clear
1:35 AM 61.5 °F 35.6 °F 38% 29.93 in 10.0 mi SSE 6.9 mph - N/A   Clear
1:55 AM 61.9 °F 35.2 °F 37% 29.94 in 10.0 mi South 4.6 mph - N/A   Clear
2:15 AM 61.0 °F 35.4 °F 38% 29.93 in 10.0 mi SSE 5.8 mph - N/A   Clear
2:35 AM 61.5 °F 35.1 °F 37% 29.91 in 10.0 mi SSE 4.6 mph - N/A   Clear
2:55 AM 61.9 °F 35.1 °F 37% 29.91 in 10.0 mi West 3.5 mph - N/A   Clear
3:15 AM 63.0 °F 34.2 °F 34% 29.89 in 10.0 mi SSW 6.9 mph - N/A   Clear
3:35 AM 62.1 °F 34.7 °F 36% 29.88 in 10.0 mi Calm Calm - N/A   Clear
3:55 AM 63.0 °F 34.2 °F 34% 29.88 in 10.0 mi SE 4.6 mph - N/A   Scattered Clouds
4:15 AM 63.0 °F 35.6 °F 36% 29.88 in 10.0 mi Calm Calm - N/A   Scattered Clouds
4:35 AM 62.6 °F 36.0 °F 37% 29.87 in 10.0 mi Calm Calm - N/A   Scattered Clouds
4:55 AM 62.8 °F 37.2 °F 39% 29.87 in 10.0 mi Calm Calm - N/A   Clear
5:15 AM 62.8 °F 38.3 °F 40% 29.87 in 10.0 mi Calm Calm - N/A   Clear
5:35 AM 63.3 °F 39.6 °F 42% 29.85 in 10.0 mi SSE 8.1 mph 16.1 mph N/A   Scattered Clouds
5:55 AM 63.1 °F 40.1 °F 43% 29.84 in 10.0 mi South 5.8 mph 16.1 mph N/A   Scattered Clouds
6:15 AM 63.9 °F 40.6 °F 43% 29.84 in 10.0 mi SSE 6.9 mph 16.1 mph N/A   Scattered Clouds
6:35 AM 63.7 °F 41.2 °F 44% 29.83 in 10.0 mi SSE 8.1 mph - N/A   Mostly Cloudy
6:55 AM 63.9 °F 42.3 °F 45% 29.83 in 10.0 mi South 6.9 mph - N/A   Mostly Cloudy
7:15 AM 63.5 °F 42.8 °F 47% 29.83 in 10.0 mi SE 5.8 mph - N/A   Mostly Cloudy
7:35 AM 63.5 °F 43.0 °F 47% 29.84 in 10.0 mi SSE 6.9 mph - N/A   Overcast
7:55 AM 60.8 °F 46.8 °F 60% 29.83 in 10.0 mi SE 8.1 mph - N/A Rain Rain
8:15 AM 61.7 °F 45.7 °F 56% 29.82 in 10.0 mi SE 9.2 mph - N/A Rain Light Rain
8:35 AM 63.0 °F 46.9 °F 56% 29.81 in 10.0 mi SSE 6.9 mph - N/A   Overcast
8:55 AM 63.7 °F 47.8 °F 56% 29.82 in 10.0 mi South 6.9 mph - N/A   Overcast
9:15 AM 64.6 °F 48.9 °F 57% 29.81 in 10.0 mi SSE 4.6 mph - N/A   Overcast
9:35 AM 65.3 °F 49.3 °F 56% 29.81 in 10.0 mi South 8.1 mph - N/A   Overcast
9:55 AM 63.0 °F 52.0 °F 67% 29.81 in 7.0 mi SSW 9.2 mph - 0.01 in Rain Rain
10:15 AM 61.7 °F 53.1 °F 73% 29.81 in 7.0 mi WSW 8.1 mph - 0.01 in Rain Light Rain
10:35 AM 60.8 °F 55.2 °F 82% 29.80 in 10.0 mi Calm Calm - 0.02 in Rain Rain
10:55 AM 61.3 °F 55.0 °F 80% 29.79 in 10.0 mi Calm Calm - 0.03 in Rain Light Rain
11:15 AM 63.3 °F 55.6 °F 76% 29.79 in 10.0 mi West 4.6 mph - N/A   Overcast
11:35 AM 60.1 °F 57.0 °F 90% 29.80 in 5.0 mi WNW 4.6 mph - 0.01 in Rain , Thunderstorm Light Thunderstorms and Rain
11:55 AM 59.5 °F 56.5 °F 90% 29.80 in 5.0 mi West 4.6 mph - 0.06 in Rain , Thunderstorm Thunderstorms and Rain
12:15 PM 59.0 °F 56.3 °F 91% 29.80 in 2.5 mi SW 6.9 mph - 0.04 in Rain , Thunderstorm Heavy Thunderstorms and Rain
12:35 PM 59.5 °F 56.5 °F 90% 29.79 in 5.0 mi WSW 8.1 mph - 0.07 in Rain , Thunderstorm Light Thunderstorms and Rain
12:55 PM 60.3 °F 57.2 °F 90% 29.79 in 10.0 mi West 3.5 mph - 0.07 in   Overcast
1:15 PM 61.3 °F 57.6 °F 87% 29.79 in 10.0 mi WSW 8.1 mph - N/A Thunderstorm Overcast
1:35 PM 62.8 °F 57.0 °F 81% 29.79 in 10.0 mi SW 10.4 mph 19.6 mph N/A Thunderstorm Overcast
1:55 PM 63.3 °F 56.7 °F 79% 29.78 in 10.0 mi SW 8.1 mph - N/A   Overcast
2:15 PM 62.6 °F 56.1 °F 79% 29.78 in 10.0 mi SW 10.4 mph 17.3 mph N/A Thunderstorm Unknown
2:35 PM 62.1 °F 56.7 °F 82% 29.78 in 10.0 mi SW 10.4 mph 17.3 mph N/A Rain Light Rain
2:55 PM 62.6 °F 57.2 °F 82% 29.79 in 10.0 mi SW 9.2 mph 16.1 mph N/A   Overcast
3:15 PM 62.6 °F 56.1 °F 79% 29.79 in 10.0 mi WSW 11.5 mph 20.7 mph 0.01 in   Overcast
3:35 PM 60.6 °F 56.5 °F 86% 29.80 in 2.5 mi WNW 11.5 mph 19.6 mph 0.07 in Rain Light Rain
3:55 PM 60.6 °F 56.3 °F 86% 29.80 in 7.0 mi West 9.2 mph 23.0 mph 0.08 in   Drizzle
4:15 PM 62.4 °F 55.9 °F 79% 29.80 in 10.0 mi WNW 9.2 mph 26.5 mph N/A   Overcast
4:35 PM 62.4 °F 54.9 °F 76% 29.81 in 10.0 mi WNW 11.5 mph 18.4 mph N/A Thunderstorm Overcast
4:55 PM 59.0 °F 54.5 °F 85% 29.83 in 4.0 mi West 15.0 mph 27.6 mph 0.02 in Rain Light Rain
5:15 PM 59.5 °F 54.0 °F 82% 29.84 in 10.0 mi WNW 12.7 mph 31.1 mph N/A   Overcast
5:35 PM 59.2 °F 54.0 °F 83% 29.85 in 10.0 mi West 10.4 mph 16.1 mph N/A   Overcast
5:55 PM 59.5 °F 53.2 °F 80% 29.86 in 10.0 mi West 11.5 mph 26.5 mph N/A   Overcast
6:15 PM 59.9 °F 53.2 °F 79% 29.87 in 10.0 mi NW 11.5 mph 21.9 mph N/A   Overcast
6:35 PM 59.7 °F 53.1 °F 79% 29.87 in 10.0 mi WNW 8.1 mph 17.3 mph N/A   Overcast
6:55 PM 59.9 °F 53.1 °F 78% 29.87 in 10.0 mi WNW 8.1 mph - N/A   Overcast
7:15 PM 60.4 °F 52.5 °F 75% 29.88 in 10.0 mi WNW 10.4 mph 20.7 mph N/A   Overcast
7:35 PM 60.3 °F 52.7 °F 76% 29.88 in 10.0 mi West 8.1 mph - N/A   Overcast
7:55 PM 60.3 °F 52.7 °F 76% 29.88 in 10.0 mi WNW 6.9 mph - N/A   Overcast
8:15 PM 60.4 °F 52.7 °F 76% 29.89 in 10.0 mi West 10.4 mph 18.4 mph N/A   Overcast
8:35 PM 60.3 °F 51.1 °F 72% 29.90 in 10.0 mi WNW 13.8 mph 24.2 mph N/A   Overcast
8:55 PM 59.2 °F 50.9 °F 74% 29.91 in 10.0 mi WNW 10.4 mph 23.0 mph N/A   Mostly Cloudy
9:15 PM 58.5 °F 50.4 °F 74% 29.92 in 10.0 mi WNW 8.1 mph 17.3 mph N/A   Scattered Clouds
9:35 PM 58.1 °F 49.8 °F 74% 29.93 in 10.0 mi WNW 10.4 mph 20.7 mph N/A   Scattered Clouds
9:55 PM 58.1 °F 49.1 °F 72% 29.95 in 10.0 mi NW 11.5 mph 19.6 mph N/A   Mostly Cloudy
10:15 PM 57.6 °F 47.7 °F 70% 29.97 in 10.0 mi NW 12.7 mph 26.5 mph N/A   Mostly Cloudy
10:35 PM 56.3 °F 46.2 °F 69% 29.98 in 10.0 mi NW 12.7 mph 23.0 mph N/A   Scattered Clouds
10:55 PM 55.4 °F 44.1 °F 66% 29.99 in 10.0 mi NW 13.8 mph 20.7 mph N/A   Scattered Clouds
11:15 PM 54.7 °F 43.7 °F 66% 30.00 in 10.0 mi NW 9.2 mph 19.6 mph N/A   Clear
11:35 PM 54.0 °F 43.7 °F 68% 30.00 in 10.0 mi NNW 5.8 mph - N/A   Clear